Location: Lecco
(45.8566°N, 9.3977°E)
Time: 11:56:45
(UTC+02:00)

S-56A Canister/Altair - Pass Details

Date: 30 July 2019
Orbit: 633 x 2499 km, 38.9° (Epoch: 19 August)

Event Time Altitude Azimuth Distance (km) Brightness Sun altitude
Rises 06:57:50 0° 250° (WSW) 4,364 10.7 8.0°
Reaches altitude 10° 07:00:25 10° 247° (WSW) 3,610 10.4 8.4°
Maximum altitude 07:09:56 60° 170° (S) 2,149 9.9 10.0°
Drops below altitude 10° 07:23:29 10° 96° (E) 5,007 13.4 12.3°
Sets 07:27:45 0° 93° (E) 6,124 13.7 13.0°
